[[{"header":{"parameterUnit":"m.s-1","parameterCategory":1,"la1":30.2992,"la2":30.254,"lo1":-89.0895,"lo2":-89.0443,"dy":0.0025,"dx":0.0025,"nx":19,"ny":19,"refTime":"2026-04-06T21:00:00:Z","depth":0,"parameterNumber":2,"parameterNumberName":"U-component_of_WINDS"},"data":[0,0,0,-8.4637,-8.464,-8.4718,-8.4718,-8.486,-8.4862,0,0,0,0,0,0,0,0,0,0,0,-8.4641,-8.4643,-8.4637,-8.464,-8.4718,-8.4718,-8.486,-8.4862,0,0,0,0,0,0,0,0,0,0,0,-8.464,-8.4643,-8.4645,-8.464,-8.4718,-8.4718,-8.486,-8.4785,0,0,0,0,0,0,0,0,0,0,-8.4702,-8.4732,-8.4642,-8.4645,-8.4641,-8.4718,-8.4718,-8.4781,-8.479,-8.4844,0,-8.49,0,-8.4884,-8.4875,-8.4875,0,0,0,-8.4619,-8.4725,-8.4722,-8.4646,-8.4642,-8.4718,-8.4677,-8.4786,-8.4796,-8.4856,-8.4902,-8.4906,-8.4886,-8.4876,-8.4877,-8.5262,-8.5264,0,0,-8.4615,-8.4669,-8.4715,-8.473,-8.4722,-8.4675,-8.468,-8.4791,-8.4844,-8.4902,-8.4908,-8.4889,-8.4877,-8.4878,-8.5259,-8.5262,0,0,0,-8.4617,-8.4667,-8.466,-8.4726,-8.4737,-8.4677,-8.4683,-8.4839,-8.4832,-8.491,-8.4891,-8.4878,-8.488,-8.5256,-8.526,-8.5451,0,0,0,-8.4613,-8.4668,-8.466,-8.4694,-8.4735,-8.4789,-8.4729,-8.4824,-8.4835,-8.489,-8.4878,-8.4882,-8.5253,-8.5258,-8.5439,-8.5531,0,0,0,-8.4627,-8.4669,-8.469,-8.4697,-8.4732,-8.4786,-8.4785,-8.4825,-8.4825,-8.4875,-8.4883,-8.5251,-8.5257,-8.5428,-8.5513,-8.5648,0,0,0,-8.4657,-8.4857,-8.4694,-8.491,-8.4732,-8.4904,-8.4783,-8.4908,-8.4974,-8.4879,-8.5253,-8.526,-8.5425,-8.5502,-8.5638,-8.5771,-8.5833,0,0,-8.4939,-8.4893,-8.5016,-8.4872,-8.5088,-8.4888,-8.513,-8.5138,-8.5092,-8.5207,-8.5216,-8.5443,-8.5512,-8.5646,-8.6159,-8.6208,0,0,0,-8.5124,-8.5213,-8.5258,-8.5325,-8.5338,-8.5356,-8.5322,-8.5325,-8.5421,-8.5163,-8.5527,-8.5566,-8.5643,-8.5704,-8.5746,-8.5808,-8.5291,-8.529,-8.5289,-8.56,-8.5533,-8.5732,-8.5675,-8.5742,-8.5706,-8.5754,-8.5752,-8.5662,-8.575,-8.5783,-8.6103,-8.6177,-8.6208,-8.6274,-8.5849,-8.585,-8.5851,-8.5851,-8.6007,-8.6122,-8.6002,-8.6152,-8.6081,-8.6205,-8.6179,-8.6113,-8.6218,-8.6072,-8.6135,-8.5981,-8.6264,-8.6318,-8.5865,-8.5863,-8.5861,-8.586,-8.5859,-8.631,-8.6353,-8.6356,-8.6448,-8.6527,-8.6462,-8.657,-8.65,-8.6434,-8.6498,-8.6525,-8.6522,-8.6509,-8.6516,-8.6518,-8.6519,-8.652,-8.652,-8.6521,-8.6622,-8.662,-8.672,-8.6753,-8.6788,-8.6826,-8.6795,-8.6827,-8.6844,-8.6784,-8.6784,-8.6687,-8.6305,-8.621,-8.6538,-8.6535,-8.6533,-8.6531,-8.653,-8.7057,-8.6949,-8.7104,-8.714,-8.7174,-8.7257,-8.7168,-8.724,-8.7257,-8.7312,-8.7203,-8.6932,-8.6878,-8.6845,-8.6765,-8.7217,-8.7217,-8.7217,-8.7217,-8.7312,-8.728,-8.7423,-8.7485,-8.7538,-8.7475,-8.7652,-8.7631,-8.7591,-8.7597,-8.7522,-8.7412,-8.7381,-8.7345,-8.73,-8.7225,-8.7784,-8.7784,-8.7785,-8.7576,-8.7546,-8.771,-8.7672,-8.7695,-8.7716,-8.788,-8.7956,-8.7888,-8.7806,-8.7601,-8.7577,-8.7397,-8.7343,-8.7254,-8.7186,-8.7046,0,0]},{"header":{"parameterUnit":"m.s-1","parameterCategory":1,"la1":30.2992,"la2":30.254,"lo1":-89.0895,"lo2":-89.0443,"dy":0.0025,"dx":0.0025,"nx":19,"ny":19,"refTime":"2026-04-06T21:00:00:Z","depth":0,"parameterNumber":3,"parameterNumberName":"V-component_of_WINDS"},"data":[0,0,0,0.9637,0.9636,0.9618,0.9618,0.9585,0.9584,0,0,0,0,0,0,0,0,0,0,0,0.9636,0.9636,0.9637,0.9636,0.9618,0.9618,0.9585,0.9584,0,0,0,0,0,0,0,0,0,0,0,0.9636,0.9636,0.9635,0.9636,0.9618,0.9618,0.9585,0.9602,0,0,0,0,0,0,0,0,0,0,0.9621,0.9615,0.9636,0.9635,0.9636,0.9618,0.9618,0.9603,0.9601,0.9589,0,0.9577,0,0.958,0.9582,0.9581,0,0,0,0.964,0.9616,0.9617,0.9635,0.9636,0.9618,0.9627,0.9602,0.9599,0.9586,0.9576,0.9575,0.958,0.9581,0.9581,0.9501,0.9501,0,0,0.9641,0.9629,0.9619,0.9616,0.9619,0.9628,0.9627,0.9601,0.9589,0.9576,0.9575,0.9579,0.9581,0.9581,0.9502,0.9501,0,0,0,0.9641,0.9629,0.9631,0.9617,0.9614,0.9627,0.9626,0.959,0.9592,0.9575,0.9579,0.9581,0.958,0.9503,0.9502,0.9463,0,0,0,0.9642,0.963,0.9632,0.9624,0.9615,0.9602,0.9616,0.9594,0.9591,0.9579,0.9581,0.958,0.9503,0.9502,0.9466,0.9446,0,0,0,0.9639,0.963,0.9625,0.9624,0.9616,0.9603,0.9603,0.9593,0.9593,0.9581,0.958,0.9504,0.9502,0.9468,0.945,0.9422,0,0,0,0.9632,0.959,0.9624,0.9579,0.9616,0.958,0.9604,0.9577,0.9562,0.9581,0.9503,0.9502,0.9469,0.9452,0.9424,0.9395,0.9383,0,0,0.9572,0.9582,0.9556,0.9587,0.9543,0.9584,0.9534,0.953,0.9539,0.9513,0.9511,0.9465,0.945,0.9422,0.9319,0.9309,0,0,0,0.9533,0.9514,0.9505,0.9492,0.949,0.9487,0.9493,0.9492,0.9472,0.9524,0.9449,0.944,0.9424,0.9411,0.9402,0.9389,0.9496,0.9496,0.9496,0.9429,0.9445,0.9404,0.9419,0.9406,0.9414,0.9405,0.9405,0.9423,0.9406,0.9397,0.9333,0.9317,0.931,0.9297,0.9385,0.9385,0.9384,0.9384,0.9341,0.9317,0.9346,0.9316,0.9334,0.9309,0.9317,0.9331,0.931,0.934,0.9327,0.9356,0.9299,0.9288,0.9382,0.9382,0.9382,0.9383,0.9383,0.9273,0.9264,0.9266,0.9251,0.9237,0.9254,0.9233,0.925,0.9265,0.9252,0.9246,0.9246,0.9248,0.9249,0.9248,0.9248,0.9248,0.9248,0.9248,0.92,0.9204,0.9186,0.9183,0.9178,0.9174,0.9185,0.918,0.9179,0.9193,0.9193,0.9212,0.9291,0.931,0.9244,0.9245,0.9245,0.9246,0.9246,0.9102,0.9128,0.9099,0.9094,0.9094,0.908,0.9103,0.9093,0.9092,0.9081,0.9105,0.9162,0.9172,0.9179,0.9194,0.9103,0.9103,0.9103,0.9103,0.9043,0.9052,0.9027,0.9019,0.9013,0.9033,0.8999,0.9009,0.9022,0.9022,0.9039,0.9062,0.9068,0.9075,0.9084,0.9098,0.8984,0.8984,0.8984,0.8984,0.8993,0.8961,0.8977,0.8979,0.898,0.895,0.8939,0.8959,0.8979,0.9023,0.9028,0.9065,0.9076,0.9093,0.9107,0.9134,0,0]}]]